CFG4VR LSZH-EDDF

Flight info

Callsign CFG4VR
Flight time 0h 48m
Altitude 20000
Route DEGES Z1 SUDEN T164 KOVAN T163 SPESA SPESA5B
Aircraft E190/M-SDE3GILORVW/S

Departure

Time 2026-05-05 20:18
Airport Zürich Airport (LSZH)

Arrival

Time 2026-05-05 21:06
Airport Frankfurt Main Airport (EDDF)
Time Latitude Longitude Altitude Speed Heading
2026-05-05 19:45 47.44479 8.56119 1396 ft 0 kts 245°
2026-05-05 20:02 47.44473 8.56099 1403 ft 4 kts 246°
2026-05-05 20:02 47.44458 8.56039 1401 ft 8 kts 258°
2026-05-05 20:02 47.44490 8.55993 1399 ft 8 kts 337°
2026-05-05 20:03 47.44555 8.55949 1398 ft 12 kts 335°
2026-05-05 20:03 47.44643 8.55888 1400 ft 16 kts 335°
2026-05-05 20:03 47.44753 8.55811 1399 ft 19 kts 334°
2026-05-05 20:03 47.44884 8.55718 1401 ft 23 kts 334°
2026-05-05 20:04 47.45036 8.55615 1395 ft 25 kts 332°
2026-05-05 20:04 47.45195 8.55517 1400 ft 19 kts 349°
2026-05-05 20:04 47.45325 8.55526 1396 ft 19 kts
2026-05-05 20:04 47.45452 8.55454 1397 ft 20 kts 335°
2026-05-05 20:05 47.45582 8.55367 1397 ft 21 kts 335°
2026-05-05 20:05 47.45673 8.55403 1396 ft 13 kts 90°
2026-05-05 20:05 47.45663 8.55547 1396 ft 15 kts 96°
2026-05-05 20:05 47.45650 8.55705 1395 ft 17 kts 98°
2026-05-05 20:06 47.45637 8.55891 1396 ft 20 kts 95°
2026-05-05 20:06 47.45623 8.56106 1395 ft 22 kts 96°
2026-05-05 20:06 47.45606 8.56332 1400 ft 7 kts 97°
2026-05-05 20:06 47.45605 8.56334 1400 ft 0 kts 97°
2026-05-05 20:08 47.45601 8.56369 1404 ft 6 kts 110°
2026-05-05 20:08 47.45554 8.56356 1399 ft 11 kts 228°
2026-05-05 20:08 47.45517 8.56254 1399 ft 6 kts 300°
2026-05-05 20:09 47.45533 8.56253 1398 ft 0 kts
2026-05-05 20:11 47.45534 8.56253 1398 ft 1 kts
2026-05-05 20:11 47.45557 8.56255 1395 ft 5 kts
2026-05-05 20:11 47.45605 8.56261 1397 ft 9 kts
2026-05-05 20:12 47.45625 8.56264 1399 ft 0 kts
2026-05-05 20:12 47.45637 8.56266 1402 ft 5 kts
2026-05-05 20:13 47.45698 8.56276 1396 ft 13 kts
2026-05-05 20:13 47.45811 8.56292 1405 ft 18 kts
2026-05-05 20:13 47.45917 8.56306 1402 ft 17 kts
2026-05-05 20:13 47.45980 8.56317 1405 ft 0 kts
2026-05-05 20:14 47.45991 8.56319 1403 ft 3 kts
2026-05-05 20:14 47.46019 8.56325 1405 ft 6 kts
2026-05-05 20:14 47.46024 8.56326 1403 ft 0 kts
2026-05-05 20:16 47.46031 8.56327 1404 ft 3 kts
2026-05-05 20:16 47.46082 8.56335 1399 ft 12 kts
2026-05-05 20:16 47.46191 8.56337 1404 ft 19 kts 345°
2026-05-05 20:17 47.46249 8.56282 1401 ft 0 kts 316°
2026-05-05 20:17 47.46270 8.56253 1396 ft 24 kts 316°
2026-05-05 20:18 47.46590 8.55806 1394 ft 102 kts 317°
2026-05-05 20:18 47.47272 8.54857 1450 ft 161 kts 316°
2026-05-05 20:18 47.48160 8.53669 2120 ft 181 kts 316°
2026-05-05 20:18 47.49117 8.52379 3158 ft 192 kts 317°
2026-05-05 20:19 47.50240 8.51285 4329 ft 198 kts 322°
2026-05-05 20:19 47.51271 8.49866 5273 ft 208 kts 298°
2026-05-05 20:19 47.51843 8.47882 6187 ft 203 kts 282°
2026-05-05 20:19 47.52079 8.45902 6789 ft 195 kts 270°
2026-05-05 20:20 47.52072 8.43860 7183 ft 206 kts 264°
2026-05-05 20:20 47.51914 8.41741 7687 ft 208 kts 258°
2026-05-05 20:20 47.51350 8.39805 8186 ft 209 kts 227°
2026-05-05 20:20 47.50047 8.38863 8822 ft 218 kts 188°
2026-05-05 20:21 47.48512 8.39357 9300 ft 246 kts 154°
2026-05-05 20:21 47.47222 8.41234 9642 ft 278 kts 126°
2026-05-05 20:21 47.46407 8.43931 10126 ft 299 kts 111°
2026-05-05 20:21 47.45893 8.46991 10556 ft 317 kts 103°
2026-05-05 20:22 47.45722 8.50338 11067 ft 330 kts 95°
2026-05-05 20:22 47.45704 8.53753 11754 ft 335 kts 89°
2026-05-05 20:22 47.45816 8.57215 12451 ft 340 kts 89°
2026-05-05 20:22 47.45935 8.60744 13153 ft 345 kts 89°
2026-05-05 20:23 47.46054 8.64307 13836 ft 350 kts 88°
2026-05-05 20:23 47.46194 8.67903 14494 ft 352 kts 88°
2026-05-05 20:23 47.46329 8.71530 15187 ft 354 kts 89°
2026-05-05 20:23 47.46464 8.75180 15866 ft 357 kts 89°
2026-05-05 20:24 47.46571 8.78854 16527 ft 359 kts 91°
2026-05-05 20:24 47.46552 8.82490 17193 ft 360 kts 96°
2026-05-05 20:24 47.46120 8.86169 17859 ft 359 kts 105°
2026-05-05 20:24 47.45627 8.89809 18487 ft 363 kts 104°
2026-05-05 20:25 47.45115 8.93420 19043 ft 366 kts 105°
2026-05-05 20:25 47.44590 8.97117 19586 ft 369 kts 105°
2026-05-05 20:25 47.44068 9.00747 19758 ft 351 kts 105°
2026-05-05 20:25 47.43552 9.04303 19829 ft 363 kts 105°
2026-05-05 20:26 47.43014 9.08014 19886 ft 373 kts 105°
2026-05-05 20:26 47.42477 9.11750 19896 ft 372 kts 105°
2026-05-05 20:26 47.42135 9.14131 19899 ft 372 kts 104°
2026-05-05 20:26 47.42012 9.17968 19905 ft 378 kts 84°
2026-05-05 20:27 47.42613 9.21757 19908 ft 381 kts 74°
2026-05-05 20:27 47.43509 9.25457 19911 ft 382 kts 70°
2026-05-05 20:27 47.44703 9.28968 19911 ft 384 kts 62°
2026-05-05 20:27 47.45995 9.32424 19905 ft 384 kts 62°
2026-05-05 20:28 47.47338 9.35829 19903 ft 384 kts 57°
2026-05-05 20:28 47.49132 9.38670 19907 ft 385 kts 39°
2026-05-05 20:28 47.51341 9.40897 19928 ft 385 kts 30°
2026-05-05 20:28 47.53746 9.42606 19917 ft 383 kts 18°
2026-05-05 20:29 47.56293 9.43758 19914 ft 382 kts 12°
2026-05-05 20:29 47.58890 9.44552 19910 ft 381 kts
2026-05-05 20:29 47.61508 9.45160 19907 ft 380 kts
2026-05-05 20:29 47.64142 9.45389 19918 ft 379 kts
2026-05-05 20:30 47.66785 9.45568 19914 ft 379 kts 360°
2026-05-05 20:30 47.69418 9.45711 19911 ft 379 kts 360°
2026-05-05 20:30 47.72052 9.45855 19911 ft 379 kts 360°
2026-05-05 20:30 47.74683 9.45996 19917 ft 379 kts 360°
2026-05-05 20:31 47.77320 9.46177 19915 ft 379 kts
2026-05-05 20:31 47.79948 9.46264 19913 ft 378 kts 358°
2026-05-05 20:31 47.82582 9.46270 19906 ft 378 kts 358°
2026-05-05 20:31 47.85213 9.46270 19900 ft 378 kts 358°
2026-05-05 20:32 47.87844 9.46264 19894 ft 378 kts 358°
2026-05-05 20:32 47.90470 9.46256 19900 ft 378 kts 358°
2026-05-05 20:32 47.93100 9.46251 19894 ft 378 kts 358°
2026-05-05 20:32 47.95690 9.46244 19882 ft 377 kts 358°
2026-05-05 20:33 47.98315 9.46238 19879 ft 378 kts 358°
2026-05-05 20:33 48.00942 9.46231 19887 ft 377 kts 358°
2026-05-05 20:33 48.03567 9.46225 19874 ft 377 kts 358°
2026-05-05 20:33 48.06191 9.46219 19867 ft 377 kts 358°
2026-05-05 20:34 48.08817 9.46213 19878 ft 377 kts 358°
2026-05-05 20:34 48.11442 9.46206 19878 ft 377 kts 358°
2026-05-05 20:34 48.14070 9.46188 19868 ft 377 kts 358°
2026-05-05 20:34 48.16691 9.46195 19867 ft 377 kts 358°
2026-05-05 20:35 48.19315 9.46196 19876 ft 377 kts 358°
2026-05-05 20:35 48.21941 9.46198 19871 ft 377 kts 358°
2026-05-05 20:35 48.24562 9.46200 19866 ft 376 kts 358°
2026-05-05 20:35 48.27183 9.46202 19870 ft 377 kts 358°
2026-05-05 20:36 48.29803 9.46205 19871 ft 376 kts 358°
2026-05-05 20:36 48.32425 9.46207 19857 ft 376 kts 358°
2026-05-05 20:36 48.35042 9.46208 19860 ft 376 kts 358°
2026-05-05 20:36 48.37664 9.46212 19863 ft 376 kts 358°
2026-05-05 20:37 48.40269 9.46212 19859 ft 376 kts 358°
2026-05-05 20:37 48.42893 9.46215 19851 ft 376 kts 358°
2026-05-05 20:37 48.45506 9.46216 19855 ft 376 kts 358°
2026-05-05 20:37 48.48118 9.46218 19856 ft 376 kts 358°
2026-05-05 20:38 48.50703 9.45851 19845 ft 372 kts 342°
2026-05-05 20:38 48.52996 9.44148 19854 ft 367 kts 319°
2026-05-05 20:38 48.54799 9.41536 19871 ft 364 kts 308°
2026-05-05 20:38 48.56284 9.38456 19862 ft 362 kts 302°
2026-05-05 20:39 48.57710 9.35330 19861 ft 361 kts 301°
2026-05-05 20:39 48.59100 9.32169 19854 ft 361 kts 301°
2026-05-05 20:39 48.60657 9.29185 19848 ft 365 kts 314°
2026-05-05 20:39 48.62644 9.26788 19865 ft 367 kts 322°
2026-05-05 20:40 48.64793 9.24680 19866 ft 368 kts 326°
2026-05-05 20:40 48.66990 9.22710 19858 ft 368 kts 329°
2026-05-05 20:40 48.69310 9.21035 19854 ft 370 kts 333°
2026-05-05 20:40 48.71660 9.19434 19865 ft 370 kts 334°
2026-05-05 20:41 48.74016 9.17872 19856 ft 370 kts 334°
2026-05-05 20:41 48.76381 9.16305 19849 ft 370 kts 334°
2026-05-05 20:41 48.78735 9.14747 19857 ft 370 kts 334°
2026-05-05 20:41 48.81097 9.13179 19861 ft 370 kts 334°
2026-05-05 20:42 48.83458 9.11611 19850 ft 370 kts 334°
2026-05-05 20:42 48.85864 9.10205 19842 ft 372 kts 342°
2026-05-05 20:42 48.88411 9.09445 19854 ft 374 kts 351°
2026-05-05 20:42 48.91003 9.09091 19843 ft 374 kts 356°
2026-05-05 20:43 48.93607 9.09254 19840 ft 376 kts
2026-05-05 20:43 48.96209 9.09562 19453 ft 375 kts
2026-05-05 20:43 48.98844 9.09941 18499 ft 382 kts
2026-05-05 20:43 49.01455 9.10311 18272 ft 375 kts
2026-05-05 20:44 49.04059 9.10683 18034 ft 377 kts
2026-05-05 20:44 49.06672 9.11058 17770 ft 377 kts
2026-05-05 20:44 49.09278 9.11432 17549 ft 375 kts
2026-05-05 20:44 49.11843 9.11799 17415 ft 374 kts
2026-05-05 20:45 49.17023 9.12553 17156 ft 373 kts
2026-05-05 20:45 49.19614 9.12915 17028 ft 373 kts
2026-05-05 20:45 49.22190 9.13282 16902 ft 372 kts
2026-05-05 20:46 49.24767 9.13648 16769 ft 371 kts
2026-05-05 20:46 49.27339 9.14014 16644 ft 371 kts
2026-05-05 20:46 49.29910 9.14385 16510 ft 370 kts
2026-05-05 20:46 49.32462 9.14754 16385 ft 369 kts
2026-05-05 20:47 49.35018 9.15126 16261 ft 369 kts
2026-05-05 20:47 49.37574 9.15499 16140 ft 368 kts
2026-05-05 20:47 49.40116 9.15868 16019 ft 367 kts
2026-05-05 20:47 49.42658 9.16237 15894 ft 367 kts
2026-05-05 20:48 49.45201 9.16610 15770 ft 366 kts
2026-05-05 20:48 49.47738 9.16983 15648 ft 365 kts
2026-05-05 20:48 49.50263 9.17352 15520 ft 365 kts
2026-05-05 20:48 49.52783 9.17718 15337 ft 363 kts
2026-05-05 20:49 49.55289 9.18083 15160 ft 362 kts
2026-05-05 20:49 49.57802 9.18449 14990 ft 361 kts
2026-05-05 20:49 49.60308 9.18818 14811 ft 360 kts
2026-05-05 20:49 49.62765 9.19178 14645 ft 359 kts
2026-05-05 20:50 49.65250 9.19544 14475 ft 358 kts
2026-05-05 20:50 49.67731 9.19912 14304 ft 357 kts
2026-05-05 20:50 49.70236 9.20281 14135 ft 356 kts
2026-05-05 20:50 49.72671 9.20640 13961 ft 356 kts
2026-05-05 20:51 49.75126 9.21003 13800 ft 354 kts
2026-05-05 20:51 49.77572 9.21367 13635 ft 353 kts
2026-05-05 20:51 49.80024 9.21733 13446 ft 353 kts
2026-05-05 20:51 49.82461 9.22098 13192 ft 352 kts
2026-05-05 20:52 49.84886 9.22462 12937 ft 350 kts
2026-05-05 20:52 49.87303 9.22829 12683 ft 349 kts
2026-05-05 20:52 49.89715 9.23197 12418 ft 348 kts
2026-05-05 20:52 49.92116 9.23563 12172 ft 345 kts
2026-05-05 20:53 49.94414 9.23920 11894 ft 319 kts
2026-05-05 20:53 49.96555 9.24268 11593 ft 299 kts
2026-05-05 20:53 49.98565 9.24605 11294 ft 283 kts
2026-05-05 20:53 50.00484 9.24939 11010 ft 273 kts
2026-05-05 20:54 50.02348 9.25270 10745 ft 269 kts
2026-05-05 20:54 50.04217 9.25606 10509 ft 270 kts
2026-05-05 20:54 50.06078 9.25944 10279 ft 268 kts
2026-05-05 20:54 50.07924 9.26285 10040 ft 266 kts
2026-05-05 20:55 50.09763 9.26629 9802 ft 265 kts
2026-05-05 20:55 50.11595 9.26753 9555 ft 262 kts 352°
2026-05-05 20:55 50.13380 9.26375 9317 ft 259 kts 346°
2026-05-05 20:55 50.15146 9.25849 9076 ft 257 kts 344°
2026-05-05 20:56 50.16893 9.25278 8825 ft 256 kts 344°
2026-05-05 20:56 50.18542 9.24363 8551 ft 249 kts 327°
2026-05-05 20:56 50.19903 9.22781 8313 ft 241 kts 303°
2026-05-05 20:56 50.20490 9.20419 8078 ft 233 kts 272°
2026-05-05 20:57 50.20499 9.17890 7856 ft 233 kts 266°
2026-05-05 20:57 50.20242 9.15423 7622 ft 231 kts 246°
2026-05-05 20:57 50.19229 9.13523 7379 ft 232 kts 217°
2026-05-05 20:57 50.17868 9.12165 7148 ft 232 kts 217°
2026-05-05 20:58 50.16666 9.10569 6912 ft 230 kts 228°
2026-05-05 20:58 50.15789 9.08507 6670 ft 229 kts 246°
2026-05-05 20:58 50.15226 9.06193 6428 ft 228 kts 249°
2026-05-05 20:58 50.14630 9.03860 6189 ft 228 kts 248°
2026-05-05 20:59 50.14261 9.02333 6030 ft 227 kts 250°
2026-05-05 20:59 50.13561 8.99265 5661 ft 226 kts 250°
2026-05-05 20:59 50.13195 8.97711 5464 ft 225 kts 249°
2026-05-05 20:59 50.12660 8.95438 5196 ft 223 kts 250°
2026-05-05 21:00 50.12138 8.93187 4924 ft 221 kts 250°
2026-05-05 21:00 50.11618 8.90967 4675 ft 214 kts 249°
2026-05-05 21:00 50.11122 8.88850 4482 ft 201 kts 249°
2026-05-05 21:00 50.10654 8.86850 4212 ft 193 kts 249°
2026-05-05 21:01 50.10201 8.84918 3932 ft 187 kts 249°
2026-05-05 21:01 50.09763 8.83053 3695 ft 177 kts 249°
2026-05-05 21:01 50.09348 8.81285 3474 ft 171 kts 249°
2026-05-05 21:01 50.08945 8.79572 3234 ft 167 kts 249°
2026-05-05 21:02 50.08547 8.77880 3008 ft 165 kts 249°
2026-05-05 21:02 50.08166 8.76261 2813 ft 150 kts 249°
2026-05-05 21:02 50.07843 8.74890 2629 ft 125 kts 249°
2026-05-05 21:02 50.07559 8.73687 2402 ft 114 kts 249°
2026-05-05 21:03 50.07283 8.72516 2246 ft 117 kts 249°
2026-05-05 21:03 50.07001 8.71318 2114 ft 119 kts 248°
2026-05-05 21:03 50.06715 8.70111 1973 ft 118 kts 249°
2026-05-05 21:03 50.06431 8.68910 1815 ft 119 kts 248°
2026-05-05 21:04 50.06147 8.67707 1663 ft 118 kts 248°
2026-05-05 21:04 50.05865 8.66512 1504 ft 118 kts 248°
2026-05-05 21:04 50.05581 8.65318 1331 ft 118 kts 248°
2026-05-05 21:04 50.05306 8.64142 1137 ft 116 kts 249°
2026-05-05 21:05 50.05046 8.62946 981 ft 118 kts 248°
2026-05-05 21:05 50.04747 8.61731 835 ft 122 kts 248°
2026-05-05 21:05 50.04447 8.60492 689 ft 124 kts 248°
2026-05-05 21:05 50.04145 8.59236 488 ft 121 kts 248°
2026-05-05 21:06 50.03861 8.58027 352 ft 111 kts 249°
2026-05-05 21:06 50.03642 8.57126 347 ft 65 kts 249°
2026-05-05 21:06 50.03520 8.56621 353 ft 45 kts 249°
2026-05-05 21:06 50.03434 8.56218 354 ft 25 kts 263°
2026-05-05 21:07 50.03451 8.55949 350 ft 22 kts 279°
2026-05-05 21:07 50.03467 8.55796 344 ft 12 kts 279°
2026-05-05 21:07 50.03512 8.55700 344 ft 12 kts 349°
2026-05-05 21:07 50.03573 8.55795 349 ft 15 kts 69°
2026-05-05 21:08 50.03614 8.55972 348 ft 19 kts 70°
2026-05-05 21:08 50.03666 8.56186 352 ft 23 kts 70°
2026-05-05 21:08 50.03726 8.56435 352 ft 26 kts 71°
2026-05-05 21:08 50.03791 8.56716 346 ft 29 kts 69°
2026-05-05 21:09 50.03865 8.57010 350 ft 29 kts 69°
2026-05-05 21:09 50.03933 8.57307 347 ft 29 kts 70°
2026-05-05 21:09 50.04004 8.57601 347 ft 29 kts 69°
2026-05-05 21:09 50.04076 8.57894 346 ft 29 kts 70°
2026-05-05 21:10 50.04145 8.58188 352 ft 29 kts 69°
2026-05-05 21:10 50.04214 8.58482 349 ft 29 kts 68°
2026-05-05 21:10 50.04287 8.58770 353 ft 29 kts 68°
2026-05-05 21:10 50.04356 8.59060 352 ft 29 kts 70°
2026-05-05 21:11 50.04423 8.59352 346 ft 29 kts 69°
2026-05-05 21:11 50.04514 8.59481 344 ft 17 kts
2026-05-05 21:11 50.04636 8.59469 344 ft 18 kts 355°
2026-05-05 21:11 50.04762 8.59417 347 ft 20 kts 339°
2026-05-05 21:12 50.04865 8.59363 353 ft 12 kts 351°
2026-05-05 21:12 50.04950 8.59374 348 ft 13 kts 347°
2026-05-05 21:12 50.05040 8.59317 349 ft 15 kts 338°
2026-05-05 21:12 50.05075 8.59188 352 ft 14 kts 251°
2026-05-05 21:13 50.05052 8.59124 347 ft 2 kts 202°
2026-05-05 21:13 50.05034 8.59129 345 ft 4 kts 164°
2026-05-05 21:13 50.04996 8.59149 350 ft 6 kts 160°
2026-05-05 21:13 50.04984 8.59156 350 ft 0 kts 160°